Wichita, KS

9:24 AM CDT on October 22, 2017 (GMT -0500)
Wichita Eisenhower National Airport

Weather History for KICT - October, 2014

Change the Weather History Date:

Friday, October 10, 2014

  Actual Average Record
Temperature  
Mean Temperature 55 °F 60 °F  
Max Temperature 60 °F 72 °F 94 °F (1965)
Min Temperature 49 °F 49 °F 29 °F (2000)
Degree Days  
Heating Degree Days 10 6  
Month to date heating degree days 36 50  
Since 1 July heating degree days 57 93  
Cooling Degree Days 0 2  
Month to date cooling degree days 44 23  
Year to date cooling degree days 1815 1672  
Growing Degree Days 2 (Base 50)    
Moisture  
Dew Point 49 °F    
Average Humidity 82    
Maximum Humidity 93    
Minimum Humidity 71    
Precipitation  
Precipitation 0.46 in 0.09 in 2.72 in (1897)
Month to date precipitation 0.67 1.02  
Year to date precipitation 23.12 28.25  
Snow  
Snow 0.00 in 0.00 in 0.00 in (2007)
Month to date snowfall 0.0 0.0  
Since 1 July snowfall 0.0 0.0  
Since 1 September snowfall 0.0 0.0  
Snow Depth 0.00 in    
Sea Level Pressure  
Sea Level Pressure 30.04 in    
Wind  
Wind Speed 17 mph (NNE)    
Max Wind Speed 26 mph    
Max Gust Speed 35 mph    
Visibility 8 miles    
Events Rain    
T = Trace of Precipitation, MM = Missing Value Source: NWS Daily Summary

Daily Weather History Graph

Daily Weather History Graph

Search for Another Location

Airport or City:

Trip Planner

Search our weather history database for the weather conditions in past years. The results will help you decide how hot, cold, wet, or windy it might be!

Date:

Astronomy

Oct. 10, 2014 Rise Set
Actual Time 7:33 AM CDT 6:59 PM CDT
Civil Twilight 7:07 AM CDT 7:25 PM CDT
Nautical Twilight 6:36 AM CDT 7:55 PM CDT
Astronomical Twilight 6:06 AM CDT 8:26 PM CDT
Moon 8:43 PM CDT (10/10) 9:53 AM CDT (10/10)
Length of Visible Light 12h 18m
Length of Day
11h 26m
Waning Gibbous, 93% of the Moon is Illuminated
Oct 10
Waning Gibbous
Oct 15
Last Quarter
Oct 23
New
Oct 30
First Quarter
Nov 6
Full

Hourly Weather History & Observations

Time (CDT) Temp. Dew Point Humidity Pressure Visibility Wind Dir Wind Speed Gust Speed Precip Events Conditions
12:53 AM 60.1 °F 57.9 °F 93% 29.92 in 6.0 mi NE 20.7 mph 25.3 mph 0.01 in Rain Light Rain
1:53 AM 59.0 °F 57.0 °F 93% 29.91 in 9.0 mi NE 21.9 mph 28.8 mph 0.02 in   Overcast
2:05 AM 59.0 °F 57.0 °F 93% 29.95 in 9.0 mi NE 18.4 mph - N/A   Overcast
2:53 AM 57.9 °F 55.0 °F 90% 29.91 in 6.0 mi NE 17.3 mph 27.6 mph 0.02 in Rain Rain
3:53 AM 57.2 °F 55.4 °F 94% 29.97 in 8.0 mi ENE 9.2 mph - N/A Rain Rain
4:24 AM 57.0 °F 55.0 °F 93% 29.96 in 10.0 mi NNE 13.8 mph - 0.04 in Rain Light Rain
4:53 AM 55.9 °F 54.0 °F 93% 29.94 in 10.0 mi NNE 17.3 mph 21.9 mph 0.06 in Rain Light Rain
5:53 AM 55.9 °F 53.1 °F 90% 29.92 in 9.0 mi NE 21.9 mph - 0.03 in Rain Light Rain
6:23 AM 55.9 °F 53.1 °F 90% 29.95 in 10.0 mi NE 20.7 mph 27.6 mph 0.01 in   Overcast
6:53 AM 55.0 °F 53.1 °F 93% 29.95 in 10.0 mi NE 21.9 mph - 0.01 in   Overcast
7:53 AM 55.0 °F 52.0 °F 89% 29.98 in 10.0 mi NE 21.9 mph - 0.00 in Rain Light Rain
8:53 AM 55.0 °F 51.1 °F 86% 30.01 in 10.0 mi ENE 19.6 mph 29.9 mph 0.00 in   Overcast
9:53 AM 55.0 °F 52.0 °F 89% 30.04 in 9.0 mi NNE 13.8 mph 24.2 mph 0.00 in Rain Light Rain
10:21 AM 54.0 °F 51.1 °F 90% 30.07 in 3.0 mi North 16.1 mph 20.7 mph 0.01 in Rain Rain
10:53 AM 53.1 °F 48.9 °F 86% 30.05 in 10.0 mi NNE 23.0 mph 33.4 mph 0.02 in Rain Light Rain
11:53 AM 51.1 °F 48.0 °F 89% 30.06 in 2.5 mi NNE 20.7 mph 27.6 mph 0.04 in Rain Rain
12:53 PM 51.1 °F 48.0 °F 89% 30.09 in 2.5 mi NNE 15.0 mph 24.2 mph 0.08 in Rain Light Rain
1:53 PM 52.0 °F 48.9 °F 89% 30.06 in 2.5 mi NNE 18.4 mph 27.6 mph 0.01 in Rain Light Rain
2:02 PM 52.0 °F 48.9 °F 89% 30.07 in 4.0 mi NNE 18.4 mph 27.6 mph 0.00 in Rain Light Rain
2:27 PM 53.1 °F 48.0 °F 83% 30.06 in 10.0 mi NNE 21.9 mph 28.8 mph 0.00 in   Overcast
2:45 PM 53.1 °F 48.0 °F 83% 30.06 in 10.0 mi NNE 18.4 mph 26.5 mph 0.00 in   Overcast
2:53 PM 53.1 °F 48.0 °F 83% 30.06 in 10.0 mi NNE 18.4 mph 26.5 mph 0.00 in   Overcast
3:53 PM 52.0 °F 46.9 °F 83% 30.09 in 10.0 mi NNE 16.1 mph - N/A   Overcast
4:34 PM 52.0 °F 45.0 °F 77% 30.10 in 10.0 mi North 18.4 mph 26.5 mph N/A   Overcast
4:53 PM 52.0 °F 44.1 °F 74% 30.10 in 10.0 mi NNE 18.4 mph 31.1 mph N/A   Overcast
5:53 PM 50.0 °F 43.0 °F 77% 30.12 in 10.0 mi North 18.4 mph 27.6 mph 0.00 in Rain Light Rain
6:53 PM 51.1 °F 42.1 °F 71% 30.14 in 10.0 mi NNE 17.3 mph 26.5 mph 0.00 in   Overcast
7:53 PM 51.1 °F 42.1 °F 71% 30.14 in 10.0 mi North 13.8 mph 24.2 mph 0.00 in   Overcast
8:53 PM 51.1 °F 42.1 °F 71% 30.14 in 10.0 mi North 11.5 mph - N/A   Overcast
9:53 PM 50.0 °F 42.1 °F 74% 30.14 in 10.0 mi North 16.1 mph - N/A   Overcast
10:53 PM 50.0 °F 41.0 °F 71% 30.17 in 10.0 mi North 10.4 mph - N/A   Overcast
11:53 PM 48.9 °F 39.9 °F 71% 30.18 in 10.0 mi NNE 15.0 mph 20.7 mph N/A   Overcast